sat.trackr.live / text

‹ back to catalog

STARLINK-32501

NORAD 61890 · 2024-204S

PAYLOAD ACTIVE UNKNOWN

§ Identity

Operator
Country
US
Launch date
2024-11-09
Launch site
AFWTR
Launch vehicle
Mass (kg)
RCS (m²)

Purposes: comms

External: N2YO · Heavens-Above · Gunter

§ Orbital elements

Epoch: 2026-05-25T05:11:54.290112Z

Period
93.85 min
Inclination
53.1619°
Eccentricity
0.0001043
Mean motion
15.34396102 rev/d
Perigee alt
462.0 km
Apogee alt
463.4 km
Semi-major
6,840.9 km
B*
-1.8443e-5
RAAN
130.9506°
Arg perigee
93.1634°
Mean anomaly
266.9488°
Rev number
8,682

§ Raw data

STARLINK-325011 61890U 24204S   26145.21660058 -.00000999  00000+0 -18443-4 0  99942 61890  53.1619 130.9506 0001043  93.1634 266.9488 15.34396102 86820

JSON: /api/v1/satellites/61890 · /tle

For live sub-satellite position, see the globe view (requires WebGL).

§ Visibility from observer

Set your observer location to see the next 7 days of passes ≥ 10°. The values pass through the URL so the page stays shareable.

No JS? Fill the form by hand. The geolocation button needs JavaScript.